This is the latest recevied weather packets stored in our database for station/object KB3HLL. If no packets are shown the sender has not sent any weather packets the latest 10 day(s).
| Time | Temp. | Humidity | Pressure | Rain* | Wind** | Luminosity | Snow |
|---|---|---|---|---|---|---|---|
| 1777940178 | 17.78° C | 59% | 1010.3 hPa | 0 mm | - | 1 W/m² | - |
| 1777939879 | 17.78° C | 59% | 1010.3 hPa | 0 mm | - | 2 W/m² | - |
| 1777939577 | 17.78° C | 59% | 1010.2 hPa | 0 mm | - | 4 W/m² | - |
| 1777939278 | 17.78° C | 59% | 1010.2 hPa | 0 mm | - | 6 W/m² | - |
| 1777938978 | 17.78° C | 58% | 1010.1 hPa | 0 mm | - | 7 W/m² | - |
| 1777938680 | 17.78° C | 58% | 1010.1 hPa | 0 mm | - | 10 W/m² | - |
| 1777938379 | 17.78° C | 58% | 1009.9 hPa | 0 mm | - | 15 W/m² | - |
| 1777938077 | 17.78° C | 58% | 1009.9 hPa | 0 mm | - | 19 W/m² | - |
| 1777937778 | 18.33° C | 57% | 1009.8 hPa | 0 mm | - | 25 W/m² | - |
| 1777937478 | 18.33° C | 57% | 1009.9 hPa | 0 mm | - | 35 W/m² | - |
| 1777937178 | 18.33° C | 57% | 1009.8 hPa | 0 mm | - | 46 W/m² | - |
| 1777936877 | 18.33° C | 57% | 1009.8 hPa | 0 mm | - | 40 W/m² | - |
| 1777936578 | 18.33° C | 56% | 1009.8 hPa | 0 mm | - | 47 W/m² | - |
| 1777936278 | 18.33° C | 56% | 1009.6 hPa | 0 mm | - | 45 W/m² | - |
| 1777935978 | 18.33° C | 56% | 1009.8 hPa | 0 mm | - | 69 W/m² | - |
| 1777935678 | 18.33° C | 56% | 1009.8 hPa | 0 mm | - | 96 W/m² | - |
| 1777935378 | 18.33° C | 55% | 1009.8 hPa | 0 mm | - | 84 W/m² | - |
| 1777935077 | 18.33° C | 56% | 1009.8 hPa | 0 mm | - | 107 W/m² | - |
| 1777934777 | 18.33° C | 55% | 1009.8 hPa | 0 mm | - | 78 W/m² | - |
| 1777934477 | 18.33° C | 55% | 1009.6 hPa | 0 mm | - | 132 W/m² | - |
| 1777934177 | 18.33° C | 55% | 1009.6 hPa | 0 mm | - | 92 W/m² | - |
| 1777933878 | 18.33° C | 55% | 1009.6 hPa | 0 mm | - | 86 W/m² | - |
| 1777933291 | 18.89° C | 55% | 1009.5 hPa | 0 mm | - | 99 W/m² | - |
| 1777932977 | 18.89° C | 54% | 1009.6 hPa | 0 mm | - | 125 W/m² | - |
| 1777932677 | 18.89° C | 54% | 1009.6 hPa | 0 mm | - | 213 W/m² | - |
* Rain latest hour (hover to see other rain measurements)
** Current wind speed in m/s (hover to see current wind gust speed)